TimeEST,TemperatureF,Dew PointF,Humidity,Sea Level PressureIn,VisibilityMPH,Wind Direction,Wind SpeedMPH,Gust SpeedMPH,PrecipitationIn,Events,Conditions,WindDirDegrees,DateUTC
12:53 AM,26.1,15.1,63,30.31,10.0,Calm,Calm,-,N/A,,Mostly Cloudy,0,2014-02-07 05:53:00
1:53 AM,27.0,16.0,63,30.30,10.0,West,6.9,-,N/A,,Scattered Clouds,270,2014-02-07 06:53:00
2:53 AM,27.0,16.0,63,30.31,10.0,West,9.2,-,N/A,,Mostly Cloudy,260,2014-02-07 07:53:00
3:53 AM,26.1,16.0,66,30.32,10.0,WSW,4.6,-,N/A,,Mostly Cloudy,240,2014-02-07 08:53:00
4:53 AM,27.0,15.1,61,30.32,10.0,WSW,5.8,-,N/A,,Overcast,250,2014-02-07 09:53:00
5:53 AM,26.1,15.1,63,30.33,10.0,WSW,4.6,-,N/A,,Mostly Cloudy,250,2014-02-07 10:53:00
6:53 AM,26.1,15.1,63,30.35,10.0,West,6.9,-,N/A,,Mostly Cloudy,270,2014-02-07 11:53:00
7:53 AM,25.0,14.0,63,30.36,10.0,West,4.6,-,N/A,,Clear,260,2014-02-07 12:53:00
8:53 AM,27.0,15.1,61,30.37,10.0,Variable,3.5,-,N/A,,Clear,0,2014-02-07 13:53:00
9:53 AM,28.0,14.0,56,30.37,10.0,West,8.1,-,N/A,,Clear,280,2014-02-07 14:53:00
10:53 AM,30.0,12.9,49,30.38,9.0,West,9.2,-,N/A,,Clear,260,2014-02-07 15:53:00
11:53 AM,30.0,12.0,47,30.35,10.0,West,9.2,-,N/A,,Clear,270,2014-02-07 16:53:00
12:53 PM,30.9,12.9,47,30.32,10.0,WNW,12.7,-,N/A,,Clear,290,2014-02-07 17:53:00
1:53 PM,32.0,12.9,45,30.32,10.0,West,9.2,-,N/A,,Clear,280,2014-02-07 18:53:00
2:53 PM,33.1,14.0,46,30.30,10.0,WNW,9.2,-,N/A,,Clear,290,2014-02-07 19:53:00
3:53 PM,33.1,15.1,48,30.30,10.0,WNW,8.1,-,N/A,,Clear,290,2014-02-07 20:53:00
4:53 PM,33.1,16.0,50,30.32,10.0,WNW,10.4,-,N/A,,Clear,300,2014-02-07 21:53:00
5:53 PM,30.9,14.0,50,30.34,10.0,West,15.0,-,N/A,,Clear,280,2014-02-07 22:53:00
6:53 PM,30.0,12.0,47,30.37,10.0,WNW,15.0,-,N/A,,Clear,290,2014-02-07 23:53:00
7:53 PM,28.0,10.9,49,30.37,10.0,WNW,15.0,-,N/A,,Clear,290,2014-02-08 00:53:00
8:53 PM,27.0,10.0,49,30.38,10.0,WNW,9.2,-,N/A,,Clear,290,2014-02-08 01:53:00
9:53 PM,26.1,9.0,49,30.38,10.0,West,11.5,-,N/A,,Clear,280,2014-02-08 02:53:00
10:53 PM,24.1,10.0,55,30.37,10.0,WNW,8.1,-,N/A,,Clear,290,2014-02-08 03:53:00
11:53 PM,23.0,10.0,58,30.38,10.0,WNW,8.1,-,N/A,,Clear,290,2014-02-08 04:53:00